JIELONG-3 R/B

Last updated on Sun Mar 15 2026 00:02:06 GMT+0000 (Coordinated Universal Time)

1 67753U 26027H 26073.64212889 .00796806 23474-5 87690-3 0 9997 2 67753 97.5097 205.1095 0192429 226.8975 131.6058 15.82488375 4767

Satellite not in orbit